User: anonymous
Location: South Range
(44.4886°N, 65.7879°W)
Time: 20:14:59
(UTC-03:00)
Language:

Iridium 56 - Orbit

View from above orbital plane
View from above orbital plane
View from above satellite
View from above satellite

Ground track
Ground track

The orbit data is extracted from the following two-line orbital elements,

1 25170U 98010B   14211.20637998  .00000202  00000-0  65214-4 0  7013
2 25170 086.3934 070.6132 0002178 107.2726 031.7383 14.34215982860831
Epoch (UTC): 30 July 2014 04:57:11
Eccentricity: 0.0002178
inclination: 86.3934°
perigee height: 776 km
apogee height: 779 km
right ascension of ascending node: 70.6132°
argument of perigee: 107.2726°
revolutions per day: 14.34215982
mean anomaly at epoch: 31.7383°
orbit number at epoch: 86083

The dashed part of the orbit path shows where the satellite is in the earth's shadow,  

DLR